Vrbovec HR Speed Test Log

Averages  Max Speed    
1 to 25 of 265** for City Vrbovec HR
Time
  
  Speed   Provider Size    User ConnectID   TestID  
11/15/19 8:59:23 pm 20.39 Mbps 2.55 MB/sOptima 12.6 MB8180129947381 0vFjJJsUx 
11/15/19 8:59:05 pm 12.29 Mbps 1.54 MB/sOptima 13.1 MB8180129947381 jsBtQ9Bja 
11/14/19 9:57:06 pm 11.42 Mbps 1.43 MB/sOptima 15.1 MB8180129947381 yb_K1cvyA 
11/14/19 9:56:22 pm 15.66 Mbps 1.96 MB/sOptima 82.3 MB8180129947381 gy7F47Kif 
11/7/19 9:36:54 pm 11.23 Mbps 1.4 MB/sOptima 6.2 MB8180129947197 vqijte0ri 
11/7/19 9:36:43 pm 19.22 Mbps 2.4 MB/sOptima 56.9 MB8180129947197 U1HnIYbI3 
11/4/19 8:44:54 pm 64.75 Mbps 8.09 MB/sOptima 61 MB818013002603 fo0y31xDS 
11/4/19 8:41:43 pm 55.6 Mbps 6.95 MB/sOptima 56.5 MB818013002603 IDf1C~VaL 
7/16/19 8:21:19 am 10 kbps 1 kB/sHrvatski 96 kB4235650814893 N8J3PLBao 
6/29/19 4:55:36 pm 26.42 Mbps 3.3 MB/sHrvatski 21.9 MB423564939849 Fb~A8AMqP 
6/29/19 4:55:26 pm 27.89 Mbps 3.49 MB/sHrvatski 60.4 MB423564939849 _VXpguMgw 
6/29/19 4:53:29 pm 26.03 Mbps 3.25 MB/sHrvatski 18.6 MB423564939849 E37jU-OwV 
6/29/19 4:53:17 pm 29.78 Mbps 3.72 MB/sHrvatski 41.7 MB423564939849 D9wYhhMob 
6/29/19 4:31:11 pm 4.71 Mbps 588 kB/sHrvatski 3.4 MB423564939849 -yk-6eaeM 
6/29/19 4:30:53 pm 17.99 Mbps 2.25 MB/sHrvatski 12.8 MB423564939849 BBrLms6dw 
6/28/19 2:39:41 pm 41.22 Mbps 5.15 MB/sVipnet 22.6 MB17263535838356 AiDd4dPxo 
6/26/19 9:41:34 am 592 kbps 74 kB/sHrvatski 512 kB4235651179876 z-xPvNaea 
6/26/19 9:40:43 am 1.04 Mbps 130 kB/sHrvatski 512 kB4235651179876 7OyX-VOSv 
6/25/19 10:31:34 am 2.75 Mbps 344 kB/sTele2 2 MB7627607323797 c_XctHC2F 
6/24/19 1:22:12 pm 116.81 Mbps 14.6 MB/sOptima 80.3 MB818013002787 YI8eB9PAJ 
6/16/19 12:09:32 pm 1.4 Mbps 176 kB/sVipnet 1.3 MB100166329489 4gjZf4t~a 
6/16/19 12:09:20 pm 17.93 Mbps 2.24 MB/sVipnet 22.3 MB100166329489 -UCywd~0O 
5/28/19 12:51:03 am 29.09 Mbps 3.64 MB/sTele2 63.5 MB7081331204276 XFKBMfxl7 
5/28/19 12:50:00 am 4.63 Mbps 578 kB/sTele2 2.3 MB7081331204276 ipZLLLZ1Y 
5/27/19 2:50:38 pm 124.91 Mbps 15.61 MB/sOptima 114 MB818013002787 AFrTmXs05 
  
** Partial Results: The most recent results have been displayed. Results over 50 Mbps are highlighted.
Calculated from graphed results above not entire query.
Displaying Internet Speed Test results for City Vrbovec HR

Minimum

Min 2.75 Mbps : 0.01 Mbps

Average

Avg 34.32 Mbps : 19.8 Mbps

Maximum

Max 124.91 Mbps : 64.75 Mbps

Minimum

Min: 2.75 Mbps : 0.01 Mbps |

Average

Avg: 34.32 Mbps : 19.8 Mbps |

Maximum

Max: 124.91 Mbps : 64.75 Mbps